TimeCDT,TemperatureF,Dew PointF,Humidity,Sea Level PressureIn,VisibilityMPH,Wind Direction,Wind SpeedMPH,Gust SpeedMPH,PrecipitationIn,Events,Conditions,WindDirDegrees,DateUTC
12:15 AM,48.2,41.0,76,29.95,10.0,West,15.0,-,N/A,,Overcast,280,2013-10-16 05:15:00
12:35 AM,46.4,42.8,87,29.95,9.0,West,15.0,23.0,N/A,,Overcast,270,2013-10-16 05:35:00
12:55 AM,46.4,42.8,87,29.95,10.0,West,16.1,-,N/A,,Overcast,270,2013-10-16 05:55:00
1:15 AM,46.4,42.8,87,29.95,10.0,West,10.4,18.4,N/A,,Overcast,270,2013-10-16 06:15:00
1:35 AM,46.4,42.8,87,29.95,10.0,West,15.0,20.7,N/A,,Overcast,270,2013-10-16 06:35:00
1:55 AM,46.4,41.0,81,29.95,10.0,West,13.8,-,N/A,,Overcast,270,2013-10-16 06:55:00
2:15 AM,46.4,41.0,81,29.96,10.0,West,15.0,-,N/A,,Overcast,280,2013-10-16 07:15:00
2:35 AM,48.2,41.0,76,29.96,10.0,West,12.7,18.4,N/A,,Overcast,270,2013-10-16 07:35:00
2:55 AM,48.2,41.0,76,29.95,10.0,West,12.7,18.4,N/A,,Overcast,270,2013-10-16 07:55:00
3:15 AM,48.2,41.0,76,29.95,10.0,West,12.7,-,N/A,,Overcast,270,2013-10-16 08:15:00
3:35 AM,46.4,41.0,81,29.95,10.0,West,13.8,19.6,N/A,,Overcast,280,2013-10-16 08:35:00
3:55 AM,46.4,41.0,81,29.95,10.0,West,13.8,-,N/A,,Overcast,280,2013-10-16 08:55:00
4:15 AM,46.4,41.0,81,29.95,10.0,West,12.7,19.6,N/A,,Overcast,280,2013-10-16 09:15:00
4:35 AM,46.4,41.0,81,29.96,10.0,West,12.7,18.4,N/A,,Overcast,280,2013-10-16 09:35:00
4:55 AM,46.4,41.0,81,29.96,10.0,West,12.7,-,N/A,,Overcast,280,2013-10-16 09:55:00
5:15 AM,46.4,41.0,81,29.96,10.0,West,12.7,19.6,N/A,,Overcast,280,2013-10-16 10:15:00
5:35 AM,46.4,41.0,81,29.95,10.0,WNW,15.0,21.9,N/A,,Overcast,290,2013-10-16 10:35:00
5:55 AM,46.4,41.0,81,29.95,10.0,West,10.4,17.3,N/A,,Overcast,280,2013-10-16 10:55:00
6:15 AM,46.4,41.0,81,29.96,10.0,West,11.5,18.4,N/A,,Overcast,280,2013-10-16 11:15:00
6:35 AM,46.4,41.0,81,29.96,10.0,West,10.4,18.4,N/A,,Overcast,280,2013-10-16 11:35:00
6:55 AM,46.4,41.0,81,29.96,10.0,West,11.5,18.4,N/A,,Overcast,280,2013-10-16 11:55:00
7:15 AM,46.4,41.0,81,29.96,10.0,West,10.4,17.3,N/A,,Overcast,280,2013-10-16 12:15:00
7:35 AM,46.4,41.0,81,29.96,10.0,WNW,10.4,16.1,N/A,,Overcast,290,2013-10-16 12:35:00
7:55 AM,46.4,41.0,81,29.97,10.0,WNW,10.4,16.1,N/A,,Overcast,290,2013-10-16 12:55:00
8:15 AM,46.4,41.0,81,29.97,10.0,WNW,11.5,18.4,N/A,,Overcast,290,2013-10-16 13:15:00
8:35 AM,46.4,41.0,81,29.98,10.0,WNW,12.7,18.4,N/A,,Overcast,290,2013-10-16 13:35:00
8:55 AM,46.4,41.0,81,29.98,10.0,WNW,12.7,-,N/A,,Overcast,290,2013-10-16 13:55:00
9:15 AM,46.4,42.8,87,29.98,10.0,West,11.5,-,N/A,,Overcast,280,2013-10-16 14:15:00
9:35 AM,46.4,42.8,87,29.99,10.0,WNW,10.4,-,N/A,,Overcast,290,2013-10-16 14:35:00
9:55 AM,48.2,42.8,82,29.99,10.0,West,9.2,-,N/A,,Overcast,280,2013-10-16 14:55:00
10:15 AM,48.2,42.8,82,30.00,10.0,WNW,10.4,-,N/A,,Overcast,290,2013-10-16 15:15:00
10:35 AM,48.2,42.8,82,30.00,10.0,WNW,6.9,15.0,N/A,,Overcast,290,2013-10-16 15:35:00
10:55 AM,48.2,42.8,82,30.00,10.0,WNW,10.4,-,N/A,,Overcast,290,2013-10-16 15:55:00
11:15 AM,48.2,41.0,76,30.00,10.0,WNW,15.0,-,N/A,,Overcast,300,2013-10-16 16:15:00
11:35 AM,50.0,41.0,71,30.00,10.0,WNW,11.5,-,N/A,,Overcast,290,2013-10-16 16:35:00
11:55 AM,50.0,41.0,71,30.01,10.0,WNW,11.5,18.4,N/A,,Overcast,290,2013-10-16 16:55:00
12:15 PM,50.0,41.0,71,30.01,10.0,WNW,9.2,-,N/A,,Overcast,300,2013-10-16 17:15:00
12:35 PM,51.8,41.0,67,30.01,10.0,West,12.7,-,N/A,,Overcast,280,2013-10-16 17:35:00
12:55 PM,50.0,41.0,71,30.00,10.0,West,13.8,-,N/A,,Overcast,280,2013-10-16 17:55:00
1:15 PM,50.0,41.0,71,30.00,10.0,West,10.4,-,N/A,,Overcast,270,2013-10-16 18:15:00
1:35 PM,50.0,41.0,71,29.99,10.0,West,11.5,-,N/A,,Overcast,270,2013-10-16 18:35:00
1:55 PM,50.0,41.0,71,29.99,10.0,West,13.8,-,N/A,,Overcast,270,2013-10-16 18:55:00
2:15 PM,50.0,41.0,71,29.99,10.0,West,12.7,18.4,N/A,,Overcast,270,2013-10-16 19:15:00
2:35 PM,50.0,41.0,71,29.99,10.0,WNW,12.7,-,N/A,,Overcast,290,2013-10-16 19:35:00
2:55 PM,50.0,41.0,71,29.98,10.0,West,13.8,-,N/A,,Overcast,280,2013-10-16 19:55:00
3:15 PM,50.0,41.0,71,29.98,10.0,WNW,9.2,-,N/A,,Overcast,290,2013-10-16 20:15:00
3:35 PM,50.0,41.0,71,29.98,10.0,West,10.4,-,N/A,,Overcast,270,2013-10-16 20:35:00
3:55 PM,50.0,41.0,71,29.98,10.0,West,9.2,-,N/A,,Overcast,280,2013-10-16 20:55:00
4:15 PM,50.0,41.0,71,29.97,10.0,WNW,9.2,15.0,N/A,,Overcast,290,2013-10-16 21:15:00
4:35 PM,50.0,41.0,71,29.97,10.0,WNW,10.4,-,N/A,,Overcast,290,2013-10-16 21:35:00
4:55 PM,50.0,41.0,71,29.97,10.0,West,6.9,-,N/A,,Overcast,260,2013-10-16 21:55:00
5:15 PM,50.0,41.0,71,29.97,-9999.0,West,6.9,-,N/A,,Overcast,270,2013-10-16 22:15:00
5:35 PM,50.0,41.0,71,29.97,10.0,West,4.6,-,N/A,,Overcast,270,2013-10-16 22:35:00
5:55 PM,50.0,41.0,71,29.98,10.0,West,4.6,-,N/A,,Overcast,260,2013-10-16 22:55:00
6:15 PM,50.0,41.0,71,29.98,10.0,West,5.8,-,N/A,,Overcast,260,2013-10-16 23:15:00
6:35 PM,50.0,41.0,71,29.97,10.0,West,5.8,-,N/A,,Overcast,280,2013-10-16 23:35:00
6:55 PM,48.2,41.0,76,29.97,10.0,WSW,3.5,-,N/A,,Overcast,250,2013-10-16 23:55:00
7:15 PM,48.2,42.8,82,29.98,10.0,Calm,Calm,-,N/A,,Overcast,0,2013-10-17 00:15:00
7:35 PM,48.2,42.8,82,29.98,10.0,Calm,Calm,-,N/A,,Overcast,0,2013-10-17 00:35:00
7:55 PM,48.2,42.8,82,29.98,10.0,Calm,Calm,-,N/A,,Overcast,0,2013-10-17 00:55:00
8:15 PM,48.2,42.8,82,29.99,10.0,Calm,Calm,-,N/A,,Overcast,0,2013-10-17 01:15:00
8:35 PM,48.2,42.8,82,29.99,10.0,WSW,3.5,-,N/A,,Overcast,250,2013-10-17 01:35:00
8:55 PM,48.2,42.8,82,29.99,10.0,Calm,Calm,-,N/A,,Overcast,0,2013-10-17 01:55:00
9:15 PM,46.4,41.0,81,29.99,10.0,SW,5.8,-,N/A,,Scattered Clouds,230,2013-10-17 02:15:00
9:35 PM,46.4,41.0,81,29.98,10.0,Calm,Calm,-,N/A,,Scattered Clouds,0,2013-10-17 02:35:00
9:55 PM,46.4,41.0,81,29.98,10.0,WSW,4.6,-,N/A,,Scattered Clouds,240,2013-10-17 02:55:00
10:15 PM,44.6,41.0,87,29.98,10.0,SW,3.5,-,N/A,,Partly Cloudy,230,2013-10-17 03:15:00
10:35 PM,44.6,39.2,81,29.98,10.0,SW,4.6,-,N/A,,Clear,220,2013-10-17 03:35:00
10:55 PM,42.8,39.2,87,29.98,10.0,SW,3.5,-,N/A,,Clear,220,2013-10-17 03:55:00
11:15 PM,44.6,41.0,87,29.97,10.0,SW,4.6,-,N/A,,Partly Cloudy,220,2013-10-17 04:15:00
11:35 PM,42.8,39.2,87,29.97,10.0,SW,4.6,-,N/A,,Scattered Clouds,220,2013-10-17 04:35:00
11:55 PM,42.8,39.2,87,29.96,10.0,SSW,5.8,-,N/A,,Partly Cloudy,210,2013-10-17 04:55:00